Time,TemperatureF,DewpointF,PressureIn,WindDirection,WindDirectionDegrees,WindSpeedMPH,WindSpeedGustMPH,Humidity,HourlyPrecipIn,Conditions,Clouds,dailyrainin,SoftwareType,DateUTC
2013-07-28 00:02:00,80.5,61.8,29.98,ESE,113,5.4,5.4,53,0.00,,,0.00,WUHU216HW,2013-07-28 07:02:00,
2013-07-28 00:07:00,80.3,61.6,29.98,East,90,2.5,5.4,53,0.00,,,0.00,WUHU216HW,2013-07-28 07:07:00,
2013-07-28 00:12:00,80.3,62.1,29.98,ESE,113,3.6,5.4,54,0.00,,,0.00,WUHU216HW,2013-07-28 07:12:00,
2013-07-28 00:17:00,80.1,61.9,29.98,East,90,1.6,4.9,54,0.00,,,0.00,WUHU216HW,2013-07-28 07:17:00,
2013-07-28 00:22:00,79.9,61.7,29.98,ESE,113,2.5,4.0,54,0.00,,,0.00,WUHU216HW,2013-07-28 07:22:00,
2013-07-28 00:27:00,79.9,61.7,29.98,ESE,113,1.8,4.0,54,0.00,,,0.00,WUHU216HW,2013-07-28 07:27:00,
2013-07-28 00:32:00,79.9,61.7,29.98,ENE,68,1.8,3.6,54,0.00,,,0.00,WUHU216HW,2013-07-28 07:32:00,
2013-07-28 00:37:00,79.9,61.7,29.98,NE,45,0.0,2.7,54,0.00,,,0.00,WUHU216HW,2013-07-28 07:37:00,
2013-07-28 00:42:00,79.9,61.2,29.98,SE,135,0.0,2.0,53,0.00,,,0.00,WUHU216HW,2013-07-28 07:42:00,
2013-07-28 00:47:00,79.7,61.0,29.98,WSW,248,2.2,2.9,53,0.00,,,0.00,WUHU216HW,2013-07-28 07:47:00,
2013-07-28 00:52:00,79.6,61.4,29.98,WSW,248,0.0,2.9,54,0.00,,,0.00,WUHU216HW,2013-07-28 07:52:00,
2013-07-28 00:57:00,79.6,61.9,29.98,SW,225,0.7,2.2,55,0.00,,,0.00,WUHU216HW,2013-07-28 07:57:00,
2013-07-28 01:02:00,79.4,61.7,29.98,South,180,0.0,0.7,55,0.00,,,0.00,WUHU216HW,2013-07-28 08:02:00,
2013-07-28 01:07:00,79.2,62.1,29.98,ENE,68,1.1,1.6,56,0.00,,,0.00,WUHU216HW,2013-07-28 08:07:00,
2013-07-28 01:12:00,79.0,62.0,29.98,East,90,0.4,1.6,56,0.00,,,0.00,WUHU216HW,2013-07-28 08:12:00,
2013-07-28 01:17:00,78.8,61.8,29.98,SSE,158,1.6,1.8,56,0.00,,,0.00,WUHU216HW,2013-07-28 08:17:00,
2013-07-28 01:22:00,78.5,62.0,29.97,ESE,113,2.2,3.4,57,0.00,,,0.00,WUHU216HW,2013-07-28 08:22:00,
2013-07-28 01:27:00,78.1,61.7,29.97,SE,135,3.4,4.7,57,0.00,,,0.00,WUHU216HW,2013-07-28 08:27:00,
2013-07-28 01:32:00,78.1,62.2,29.97,ESE,113,1.8,4.9,58,0.00,,,0.00,WUHU216HW,2013-07-28 08:32:00,
2013-07-28 01:37:00,77.9,62.0,29.97,ENE,68,2.7,4.9,58,0.00,,,0.00,WUHU216HW,2013-07-28 08:37:00,
2013-07-28 01:42:00,77.8,61.8,29.97,ENE,68,2.2,3.4,58,0.00,,,0.00,WUHU216HW,2013-07-28 08:42:00,
2013-07-28 01:47:00,77.6,61.7,29.97,East,90,2.0,3.4,58,0.00,,,0.00,WUHU216HW,2013-07-28 08:47:00,
2013-07-28 01:52:00,77.4,61.5,29.97,ENE,68,3.6,3.6,58,0.00,,,0.00,WUHU216HW,2013-07-28 08:52:00,
2013-07-28 01:57:00,77.4,61.5,29.97,ESE,113,2.7,4.0,58,0.00,,,0.00,WUHU216HW,2013-07-28 08:57:00,
2013-07-28 02:02:00,77.4,61.9,29.97,ESE,113,2.2,4.0,59,0.00,,,0.00,WUHU216HW,2013-07-28 09:02:00,
2013-07-28 02:07:00,77.2,61.7,29.97,ESE,113,4.7,5.8,59,0.00,,,0.00,WUHU216HW,2013-07-28 09:07:00,
2013-07-28 02:12:00,77.0,61.6,29.96,East,90,5.4,5.8,59,0.00,,,0.00,WUHU216HW,2013-07-28 09:12:00,
2013-07-28 02:18:00,77.0,62.1,29.96,ESE,113,4.0,6.3,60,0.00,,,0.00,WUHU216HW,2013-07-28 09:18:00,
2013-07-28 02:23:00,77.0,62.1,29.96,ESE,113,4.7,6.3,60,0.00,,,0.00,WUHU216HW,2013-07-28 09:23:00,
2013-07-28 02:28:00,77.0,62.1,29.96,East,90,4.7,6.9,60,0.00,,,0.00,WUHU216HW,2013-07-28 09:28:00,
2013-07-28 02:33:00,77.2,62.3,29.96,East,90,6.0,6.9,60,0.00,,,0.00,WUHU216HW,2013-07-28 09:33:00,
2013-07-28 02:38:00,77.2,61.7,29.96,ENE,68,5.1,6.0,59,0.00,,,0.00,WUHU216HW,2013-07-28 09:38:00,
2013-07-28 02:43:00,77.4,61.9,29.96,ENE,68,5.1,6.7,59,0.00,,,0.00,WUHU216HW,2013-07-28 09:43:00,
2013-07-28 02:48:00,77.4,61.9,29.96,ENE,68,4.9,6.7,59,0.00,,,0.00,WUHU216HW,2013-07-28 09:48:00,
2013-07-28 02:53:00,77.4,61.9,29.95,East,90,3.8,6.3,59,0.00,,,0.00,WUHU216HW,2013-07-28 09:53:00,
2013-07-28 02:58:00,77.2,61.7,29.95,ESE,113,4.3,5.6,59,0.00,,,0.00,WUHU216HW,2013-07-28 09:58:00,
2013-07-28 03:03:00,77.2,61.7,29.95,ESE,113,4.9,6.3,59,0.00,,,0.00,WUHU216HW,2013-07-28 10:03:00,
2013-07-28 03:07:00,77.0,62.1,29.95,ESE,113,4.0,6.7,60,0.00,,,0.00,WUHU216HW,2013-07-28 10:07:00,
2013-07-28 03:13:00,77.0,62.1,29.95,East,90,5.6,6.7,60,0.00,,,0.00,WUHU216HW,2013-07-28 10:13:00,
2013-07-28 03:18:00,77.0,62.1,29.95,East,90,4.0,6.5,60,0.00,,,0.00,WUHU216HW,2013-07-28 10:18:00,
2013-07-28 03:23:00,77.0,62.1,29.95,East,90,3.8,6.5,60,0.00,,,0.00,WUHU216HW,2013-07-28 10:23:00,
2013-07-28 03:28:00,77.0,62.6,29.95,ESE,113,3.6,6.3,61,0.00,,,0.00,WUHU216HW,2013-07-28 10:28:00,
2013-07-28 03:33:00,76.9,61.9,29.95,East,90,3.8,6.0,60,0.00,,,0.00,WUHU216HW,2013-07-28 10:33:00,
2013-07-28 03:38:00,76.9,62.4,29.95,ENE,68,3.6,6.0,61,0.00,,,0.00,WUHU216HW,2013-07-28 10:38:00,
2013-07-28 03:43:00,76.9,62.4,29.95,ESE,113,4.3,6.0,61,0.00,,,0.00,WUHU216HW,2013-07-28 10:43:00,
2013-07-28 03:48:00,76.7,62.2,29.95,East,90,4.0,6.0,61,0.00,,,0.00,WUHU216HW,2013-07-28 10:48:00,
2013-07-28 03:53:00,76.9,62.4,29.95,East,90,4.7,5.6,61,0.00,,,0.00,WUHU216HW,2013-07-28 10:53:00,
2013-07-28 03:58:00,76.9,62.4,29.95,East,90,3.4,5.6,61,0.00,,,0.00,WUHU216HW,2013-07-28 10:58:00,
2013-07-28 04:03:00,76.9,61.9,29.95,ENE,68,4.0,6.0,60,0.00,,,0.00,WUHU216HW,2013-07-28 11:03:00,
2013-07-28 04:08:00,77.0,62.1,29.95,ENE,68,4.0,6.0,60,0.00,,,0.00,WUHU216HW,2013-07-28 11:08:00,
2013-07-28 04:13:00,77.2,62.3,29.95,East,90,5.8,6.3,60,0.00,,,0.00,WUHU216HW,2013-07-28 11:13:00,
2013-07-28 04:18:00,77.2,62.3,29.95,NE,45,4.7,6.3,60,0.00,,,0.00,WUHU216HW,2013-07-28 11:18:00,
2013-07-28 04:23:00,77.2,61.7,29.95,ENE,68,2.5,6.0,59,0.00,,,0.00,WUHU216HW,2013-07-28 11:23:00,
2013-07-28 04:28:00,77.4,61.9,29.95,ENE,68,6.0,6.0,59,0.00,,,0.00,WUHU216HW,2013-07-28 11:28:00,
2013-07-28 04:33:00,77.4,61.5,29.95,East,90,3.4,6.0,58,0.00,,,0.00,WUHU216HW,2013-07-28 11:33:00,
2013-07-28 04:38:00,77.4,61.5,29.95,East,90,5.1,6.0,58,0.00,,,0.00,WUHU216HW,2013-07-28 11:38:00,
2013-07-28 04:43:00,77.4,60.9,29.95,ENE,68,4.5,6.3,57,0.00,,,0.00,WUHU216HW,2013-07-28 11:43:00,
2013-07-28 04:48:00,77.2,61.3,29.95,ESE,113,3.8,6.3,58,0.00,,,0.00,WUHU216HW,2013-07-28 11:48:00,
2013-07-28 04:53:00,77.2,61.3,29.95,East,90,4.7,5.8,58,0.00,,,0.00,WUHU216HW,2013-07-28 11:53:00,
2013-07-28 04:58:00,77.2,61.3,29.95,ENE,68,3.4,5.4,58,0.00,,,0.00,WUHU216HW,2013-07-28 11:58:00,
2013-07-28 05:03:00,77.2,61.3,29.95,East,90,3.6,4.7,58,0.00,,,0.00,WUHU216HW,2013-07-28 12:03:00,
2013-07-28 05:08:00,77.0,61.1,29.95,East,90,2.9,4.7,58,0.00,,,0.00,WUHU216HW,2013-07-28 12:08:00,
2013-07-28 05:13:00,77.0,61.1,29.95,ESE,113,2.7,4.7,58,0.00,,,0.00,WUHU216HW,2013-07-28 12:13:00,
2013-07-28 05:18:00,76.9,60.9,29.96,East,90,2.5,4.0,58,0.00,,,0.00,WUHU216HW,2013-07-28 12:18:00,
2013-07-28 05:23:00,76.7,60.8,29.96,ESE,113,2.0,2.9,58,0.00,,,0.00,WUHU216HW,2013-07-28 12:23:00,
2013-07-28 05:28:00,76.7,60.8,29.96,East,90,1.1,2.7,58,0.00,,,0.00,WUHU216HW,2013-07-28 12:28:00,
2013-07-28 05:33:00,76.5,60.6,29.96,ENE,68,2.7,2.7,58,0.00,,,0.00,WUHU216HW,2013-07-28 12:33:00,
2013-07-28 05:38:00,76.5,60.6,29.96,ENE,68,1.6,2.7,58,0.00,,,0.00,WUHU216HW,2013-07-28 12:38:00,
2013-07-28 05:43:00,76.5,60.6,29.96,ENE,68,1.3,2.7,58,0.00,,,0.00,WUHU216HW,2013-07-28 12:43:00,
2013-07-28 05:48:00,76.5,60.6,29.97,NE,45,1.8,2.5,58,0.00,,,0.00,WUHU216HW,2013-07-28 12:48:00,
2013-07-28 05:53:00,76.7,60.8,29.97,ENE,68,1.8,2.2,58,0.00,,,0.00,WUHU216HW,2013-07-28 12:53:00,
2013-07-28 05:58:00,76.9,60.9,29.97,ENE,68,0.7,2.2,58,0.00,,,0.00,WUHU216HW,2013-07-28 12:58:00,
2013-07-28 06:03:00,76.7,60.8,29.97,SSW,203,1.6,3.4,58,0.00,,,0.00,WUHU216HW,2013-07-28 13:03:00,
2013-07-28 06:08:00,76.7,61.3,29.98,WSW,248,1.3,3.4,59,0.00,,,0.00,WUHU216HW,2013-07-28 13:08:00,
2013-07-28 06:13:00,76.5,61.7,29.97,WSW,248,0.0,3.4,60,0.00,,,0.00,WUHU216HW,2013-07-28 13:13:00,
2013-07-28 06:18:00,76.3,61.9,29.98,SE,135,0.9,1.6,61,0.00,,,0.00,WUHU216HW,2013-07-28 13:18:00,
2013-07-28 06:23:00,76.3,61.9,29.98,North,0,1.3,2.2,61,0.00,,,0.00,WUHU216HW,2013-07-28 13:23:00,
2013-07-28 06:28:00,76.5,62.5,29.98,North,0,0.7,2.2,62,0.00,,,0.00,WUHU216HW,2013-07-28 13:28:00,
2013-07-28 06:33:00,76.7,62.6,29.98,North,0,0.7,0.9,62,0.00,,,0.00,WUHU216HW,2013-07-28 13:33:00,
2013-07-28 06:38:00,76.9,62.8,29.98,North,0,0.9,0.9,62,0.00,,,0.00,WUHU216HW,2013-07-28 13:38:00,
2013-07-28 06:43:00,77.2,63.2,29.98,NNE,23,1.1,1.1,62,0.00,,,0.00,WUHU216HW,2013-07-28 13:43:00,
2013-07-28 06:48:00,77.6,63.6,29.97,SSE,158,2.0,2.0,62,0.00,,,0.00,WUHU216HW,2013-07-28 13:48:00,
2013-07-28 06:53:00,77.6,63.6,29.97,SSE,158,0.7,2.0,62,0.00,,,0.00,WUHU216HW,2013-07-28 13:53:00,
2013-07-28 06:58:00,77.6,63.6,29.97,SE,135,2.7,2.7,62,0.00,,,0.00,WUHU216HW,2013-07-28 13:58:00,
2013-07-28 07:03:00,77.6,63.6,29.97,SE,135,2.0,2.7,62,0.00,,,0.00,WUHU216HW,2013-07-28 14:03:00,
2013-07-28 07:08:00,77.6,63.6,29.97,ESE,113,3.1,3.4,62,0.00,,,0.00,WUHU216HW,2013-07-28 14:08:00,
2013-07-28 07:13:00,77.8,63.7,29.98,ESE,113,3.4,3.8,62,0.00,,,0.00,WUHU216HW,2013-07-28 14:13:00,
2013-07-28 07:18:00,77.6,63.6,29.98,SE,135,3.6,3.8,62,0.00,,,0.00,WUHU216HW,2013-07-28 14:18:00,
2013-07-28 07:23:00,77.8,63.7,29.98,ESE,113,3.8,4.7,62,0.00,,,0.00,WUHU216HW,2013-07-28 14:23:00,
2013-07-28 07:28:00,77.9,63.5,29.98,SSE,158,4.3,4.7,61,0.00,,,0.00,WUHU216HW,2013-07-28 14:28:00,
2013-07-28 07:33:00,78.3,63.8,29.98,ESE,113,3.4,5.1,61,0.00,,,0.00,WUHU216HW,2013-07-28 14:33:00,
2013-07-28 07:38:00,78.7,64.2,29.99,ESE,113,2.5,5.1,61,0.00,,,0.00,WUHU216HW,2013-07-28 14:38:00,
2013-07-28 07:43:00,79.0,64.5,29.99,SE,135,2.5,3.6,61,0.00,,,0.00,WUHU216HW,2013-07-28 14:43:00,
2013-07-28 07:48:00,79.4,64.4,29.99,SE,135,3.4,4.0,60,0.00,,,0.00,WUHU216HW,2013-07-28 14:48:00,
2013-07-28 07:53:00,79.9,64.9,29.99,SE,135,2.7,4.0,60,0.00,,,0.00,WUHU216HW,2013-07-28 14:53:00,
2013-07-28 07:58:00,80.3,64.7,29.99,SE,135,2.2,4.5,59,0.00,,,0.00,WUHU216HW,2013-07-28 14:58:00,
2013-07-28 08:03:00,80.6,65.0,29.99,ESE,113,3.4,4.5,59,0.00,,,0.00,WUHU216HW,2013-07-28 15:03:00,
2013-07-28 08:08:00,81.0,65.4,29.99,SE,135,3.4,3.6,59,0.00,,,0.00,WUHU216HW,2013-07-28 15:08:00,
2013-07-28 08:13:00,81.5,65.3,29.99,ESE,113,1.8,4.3,58,0.00,,,0.00,WUHU216HW,2013-07-28 15:13:00,
2013-07-28 08:18:00,81.9,65.6,29.99,SSE,158,2.5,4.3,58,0.00,,,0.00,WUHU216HW,2013-07-28 15:18:00,
2013-07-28 08:23:00,82.3,65.4,29.99,SSE,158,2.5,4.0,57,0.00,,,0.00,WUHU216HW,2013-07-28 15:23:00,
2013-07-28 08:28:00,82.6,65.3,29.99,ESE,113,2.9,3.8,56,0.00,,,0.00,WUHU216HW,2013-07-28 15:28:00,
2013-07-28 08:33:00,82.8,65.4,29.99,SE,135,3.8,4.0,56,0.00,,,0.00,WUHU216HW,2013-07-28 15:33:00,
2013-07-28 08:38:00,83.0,65.1,29.98,SSE,158,3.4,4.7,55,0.00,,,0.00,WUHU216HW,2013-07-28 15:38:00,
2013-07-28 08:43:00,83.3,65.4,29.98,SE,135,2.5,4.7,55,0.00,,,0.00,WUHU216HW,2013-07-28 15:43:00,
2013-07-28 08:48:00,83.7,65.3,29.97,SW,225,2.2,4.7,54,0.00,,,0.00,WUHU216HW,2013-07-28 15:48:00,
2013-07-28 08:53:00,84.2,65.8,29.98,ESE,113,0.4,4.7,54,0.00,,,0.00,WUHU216HW,2013-07-28 15:53:00,
2013-07-28 08:58:00,84.6,65.6,29.98,SSE,158,2.0,3.1,53,0.00,,,0.00,WUHU216HW,2013-07-28 15:58:00,
2013-07-28 09:03:00,84.8,65.3,29.98,SW,225,1.8,4.9,52,0.00,,,0.00,WUHU216HW,2013-07-28 16:03:00,
2013-07-28 09:08:00,85.0,64.9,29.98,SE,135,2.0,5.4,51,0.00,,,0.00,WUHU216HW,2013-07-28 16:08:00,
2013-07-28 09:13:00,85.3,64.7,29.98,SSW,203,4.3,5.4,50,0.00,,,0.00,WUHU216HW,2013-07-28 16:13:00,
2013-07-28 09:18:00,85.7,64.4,29.99,SSE,158,2.5,5.4,49,0.00,,,0.00,WUHU216HW,2013-07-28 16:18:00,
2013-07-28 09:23:00,86.0,64.7,29.99,SE,135,3.6,5.4,49,0.00,,,0.00,WUHU216HW,2013-07-28 16:23:00,
2013-07-28 09:28:00,86.2,64.3,29.99,SSE,158,4.5,5.6,48,0.00,,,0.00,WUHU216HW,2013-07-28 16:28:00,
2013-07-28 09:33:00,86.4,63.8,29.99,SSE,158,3.1,5.8,47,0.00,,,0.00,WUHU216HW,2013-07-28 16:33:00,
2013-07-28 09:38:00,86.6,63.9,29.99,South,180,2.9,5.8,47,0.00,,,0.00,WUHU216HW,2013-07-28 16:38:00,
2013-07-28 09:43:00,86.8,63.5,29.99,SSW,203,2.5,5.6,46,0.00,,,0.00,WUHU216HW,2013-07-28 16:43:00,
2013-07-28 09:48:00,87.1,63.2,29.99,SSE,158,2.0,5.6,45,0.00,,,0.00,WUHU216HW,2013-07-28 16:48:00,
2013-07-28 09:53:00,87.5,63.5,29.99,SE,135,4.3,4.5,45,0.00,,,0.00,WUHU216HW,2013-07-28 16:53:00,
2013-07-28 09:58:00,88.0,64.0,29.98,SSE,158,3.8,4.5,45,0.00,,,0.00,WUHU216HW,2013-07-28 16:58:00,
2013-07-28 10:03:00,88.2,62.8,29.98,WNW,293,2.0,4.5,43,0.00,,,0.00,WUHU216HW,2013-07-28 17:03:00,
2013-07-28 10:08:00,88.6,63.2,29.98,ENE,68,0.7,4.5,43,0.00,,,0.00,WUHU216HW,2013-07-28 17:08:00,
2013-07-28 10:13:00,88.9,62.8,29.98,West,270,0.9,4.3,42,0.00,,,0.00,WUHU216HW,2013-07-28 17:13:00,
2013-07-28 10:18:00,89.3,63.1,29.98,SE,135,4.7,4.9,42,0.00,,,0.00,WUHU216HW,2013-07-28 17:18:00,
2013-07-28 10:23:00,89.8,62.9,29.98,SE,135,1.8,6.3,41,0.00,,,0.00,WUHU216HW,2013-07-28 17:23:00,
2013-07-28 10:28:00,90.2,61.8,29.98,NNE,23,1.6,6.3,39,0.00,,,0.00,WUHU216HW,2013-07-28 17:28:00,
2013-07-28 10:33:00,90.4,59.6,29.98,NE,45,2.2,3.8,36,0.00,,,0.00,WUHU216HW,2013-07-28 17:33:00,
2013-07-28 10:38:00,90.4,59.6,29.99,West,270,3.4,3.8,36,0.00,,,0.00,WUHU216HW,2013-07-28 17:38:00,
2013-07-28 10:43:00,90.7,60.0,29.98,WSW,248,4.9,5.8,36,0.00,,,0.00,WUHU216HW,2013-07-28 17:43:00,
2013-07-28 10:48:00,90.9,60.0,29.99,SSW,203,1.8,5.8,36,0.00,,,0.00,WUHU216HW,2013-07-28 17:48:00,
2013-07-28 10:53:00,91.4,59.8,29.99,SSW,203,2.7,4.7,35,0.00,,,0.00,WUHU216HW,2013-07-28 17:53:00,
2013-07-28 10:58:00,92.2,58.8,29.98,SW,225,4.9,7.4,33,0.00,,,0.00,WUHU216HW,2013-07-28 17:58:00,
2013-07-28 11:03:00,93.1,59.5,29.99,South,180,5.4,8.5,33,0.00,,,0.00,WUHU216HW,2013-07-28 18:03:00,
2013-07-28 11:08:00,94.7,58.5,29.98,West,270,6.0,8.5,30,0.00,,,0.00,WUHU216HW,2013-07-28 18:08:00,
2013-07-28 11:13:00,95.0,58.9,29.98,NNW,338,2.9,6.5,30,0.00,,,0.00,WUHU216HW,2013-07-28 18:13:00,
2013-07-28 11:18:00,95.0,57.8,29.98,NE,45,6.3,6.5,29,0.00,,,0.00,WUHU216HW,2013-07-28 18:18:00,
2013-07-28 11:23:00,94.9,57.6,29.97,North,0,3.4,6.3,29,0.00,,,0.00,WUHU216HW,2013-07-28 18:23:00,
2013-07-28 11:28:00,94.9,58.7,29.97,South,180,1.8,6.3,30,0.00,,,0.00,WUHU216HW,2013-07-28 18:28:00,
2013-07-28 11:33:00,95.2,59.9,29.97,SSE,158,2.2,5.4,31,0.00,,,0.00,WUHU216HW,2013-07-28 18:33:00,
2013-07-28 11:38:00,95.4,59.1,29.97,WNW,293,4.7,4.7,30,0.00,,,0.00,WUHU216HW,2013-07-28 18:38:00,
2013-07-28 11:43:00,95.0,55.5,29.98,NW,315,3.8,7.6,27,0.00,,,0.00,WUHU216HW,2013-07-28 18:43:00,
2013-07-28 11:48:00,95.4,55.8,29.98,SW,225,3.6,7.6,27,0.00,,,0.00,WUHU216HW,2013-07-28 18:48:00,
2013-07-28 11:53:00,95.9,57.3,29.98,WSW,248,2.2,7.6,28,0.00,,,0.00,WUHU216HW,2013-07-28 18:53:00,
2013-07-28 11:58:00,96.7,56.9,29.98,South,180,6.9,7.6,27,0.00,,,0.00,WUHU216HW,2013-07-28 18:58:00,
2013-07-28 12:03:00,97.2,57.3,29.98,South,180,7.8,10.7,27,0.00,,,0.00,WUHU216HW,2013-07-28 19:03:00,
2013-07-28 12:08:00,97.6,55.5,29.98,WSW,248,8.5,11.2,25,0.00,,,0.00,WUHU216HW,2013-07-28 19:08:00,
2013-07-28 12:13:00,97.2,57.3,29.98,ESE,113,4.0,11.2,27,0.00,,,0.00,WUHU216HW,2013-07-28 19:13:00,
2013-07-28 12:18:00,97.9,56.9,29.98,NNW,338,4.7,8.5,26,0.00,,,0.00,WUHU216HW,2013-07-28 19:18:00,
2013-07-28 12:23:00,97.7,55.5,29.98,West,270,4.3,6.3,25,0.00,,,0.00,WUHU216HW,2013-07-28 19:23:00,
2013-07-28 12:28:00,97.4,56.3,29.97,WSW,248,3.1,6.3,26,0.00,,,0.00,WUHU216HW,2013-07-28 19:28:00,
2013-07-28 12:33:00,97.6,56.5,29.97,WSW,248,0.9,7.2,26,0.00,,,0.00,WUHU216HW,2013-07-28 19:33:00,
2013-07-28 12:38:00,97.9,56.9,29.96,South,180,4.5,7.2,26,0.00,,,0.00,WUHU216HW,2013-07-28 19:38:00,
2013-07-28 12:43:00,98.6,57.4,29.95,SW,225,8.5,8.5,26,0.00,,,0.00,WUHU216HW,2013-07-28 19:43:00,
2013-07-28 12:48:00,99.4,58.1,29.95,WSW,248,4.3,8.5,26,0.00,,,0.00,WUHU216HW,2013-07-28 19:48:00,
2013-07-28 12:53:00,99.5,56.0,29.95,NW,315,6.7,10.1,24,0.00,,,0.00,WUHU216HW,2013-07-28 19:53:00,
2013-07-28 12:58:00,99.4,57.0,29.95,WNW,293,6.0,10.1,25,0.00,,,0.00,WUHU216HW,2013-07-28 19:58:00,
2013-07-28 13:03:00,99.4,57.0,29.96,WNW,293,1.3,9.2,25,0.00,,,0.00,WUHU216HW,2013-07-28 20:03:00,
2013-07-28 13:08:00,100.3,56.6,29.95,SW,225,8.1,12.3,24,0.00,,,0.00,WUHU216HW,2013-07-28 20:08:00,
2013-07-28 13:13:00,100.6,56.9,29.96,SSW,203,9.8,12.3,24,0.00,,,0.00,WUHU216HW,2013-07-28 20:13:00,
2013-07-28 13:18:00,101.3,57.4,29.96,SE,135,2.9,13.0,24,0.00,,,0.00,WUHU216HW,2013-07-28 20:18:00,
2013-07-28 13:23:00,102.2,58.1,29.96,ESE,113,5.4,13.0,24,0.00,,,0.00,WUHU216HW,2013-07-28 20:23:00,
2013-07-28 13:28:00,102.2,53.6,29.96,West,270,8.5,16.6,20,0.00,,,0.00,WUHU216HW,2013-07-28 20:28:00,
2013-07-28 13:33:00,101.2,55.1,29.95,West,270,4.0,16.6,22,0.00,,,0.00,WUHU216HW,2013-07-28 20:33:00,
2013-07-28 13:38:00,100.8,55.9,29.95,WSW,248,8.1,12.8,23,0.00,,,0.00,WUHU216HW,2013-07-28 20:38:00,
2013-07-28 13:43:00,101.2,55.1,29.95,West,270,7.8,13.2,22,0.00,,,0.00,WUHU216HW,2013-07-28 20:43:00,
2013-07-28 13:48:00,100.8,54.7,29.94,West,270,8.5,13.2,22,0.00,,,0.00,WUHU216HW,2013-07-28 20:48:00,
2013-07-28 13:53:00,100.6,54.6,29.93,WSW,248,4.9,12.1,22,0.00,,,0.00,WUHU216HW,2013-07-28 20:53:00,
2013-07-28 13:58:00,100.4,54.5,29.93,SSW,203,0.9,9.6,22,0.00,,,0.00,WUHU216HW,2013-07-28 20:58:00,
2013-07-28 14:03:00,100.3,54.4,29.93,WNW,293,3.6,7.4,22,0.00,,,0.00,WUHU216HW,2013-07-28 21:03:00,
2013-07-28 14:08:00,99.7,53.9,29.93,WNW,293,5.8,8.5,22,0.00,,,0.00,WUHU216HW,2013-07-28 21:08:00,
2013-07-28 14:13:00,99.5,54.8,29.93,NNW,338,4.7,10.7,23,0.00,,,0.00,WUHU216HW,2013-07-28 21:13:00,
2013-07-28 14:18:00,98.6,54.1,29.93,NNW,338,5.4,10.7,23,0.00,,,0.00,WUHU216HW,2013-07-28 21:18:00,
2013-07-28 14:23:00,98.1,53.6,29.93,SSW,203,1.3,6.5,23,0.00,,,0.00,WUHU216HW,2013-07-28 21:23:00,
2013-07-28 14:28:00,98.6,54.1,29.93,NNW,338,4.0,6.5,23,0.00,,,0.00,WUHU216HW,2013-07-28 21:28:00,
2013-07-28 14:33:00,99.4,54.7,29.93,WNW,293,4.9,12.1,23,0.00,,,0.00,WUHU216HW,2013-07-28 21:33:00,
2013-07-28 14:38:00,99.0,53.3,29.93,NNW,338,6.3,12.1,22,0.00,,,0.00,WUHU216HW,2013-07-28 21:38:00,
2013-07-28 14:43:00,98.6,54.1,29.93,West,270,6.5,9.2,23,0.00,,,0.00,WUHU216HW,2013-07-28 21:43:00,
2013-07-28 14:48:00,99.7,55.0,29.93,WSW,248,6.7,12.5,23,0.00,,,0.00,WUHU216HW,2013-07-28 21:48:00,
2013-07-28 14:53:00,100.3,55.4,29.92,SW,225,9.8,12.5,23,0.00,,,0.00,WUHU216HW,2013-07-28 21:53:00,
2013-07-28 14:58:00,101.7,55.4,29.92,WSW,248,12.8,15.0,22,0.00,,,0.00,WUHU216HW,2013-07-28 21:58:00,
2013-07-28 15:03:00,102.2,55.9,29.91,WSW,248,5.8,15.0,22,0.00,,,0.00,WUHU216HW,2013-07-28 22:03:00,
2013-07-28 15:08:00,102.8,56.3,29.91,SSW,203,5.4,14.8,22,0.00,,,0.00,WUHU216HW,2013-07-28 22:08:00,
2013-07-28 15:13:00,103.0,56.5,29.91,NNW,338,1.8,10.1,22,0.00,,,0.00,WUHU216HW,2013-07-28 22:13:00,
2013-07-28 15:18:00,103.3,56.8,29.90,SW,225,3.4,6.3,22,0.00,,,0.00,WUHU216HW,2013-07-28 22:18:00,
2013-07-28 15:23:00,103.7,54.8,29.90,SSW,203,7.2,13.4,20,0.00,,,0.00,WUHU216HW,2013-07-28 22:23:00,
2013-07-28 15:28:00,104.2,57.5,29.90,South,180,6.0,13.4,22,0.00,,,0.00,WUHU216HW,2013-07-28 22:28:00,
2013-07-28 15:33:00,104.4,55.4,29.90,SW,225,8.9,15.2,20,0.00,,,0.00,WUHU216HW,2013-07-28 22:33:00,
2013-07-28 15:38:00,103.3,54.6,29.91,SSW,203,7.2,15.2,20,0.00,,,0.00,WUHU216HW,2013-07-28 22:38:00,
2013-07-28 15:43:00,103.9,54.9,29.90,SW,225,6.5,10.3,20,0.00,,,0.00,WUHU216HW,2013-07-28 22:43:00,
2013-07-28 15:48:00,104.0,53.3,29.91,NW,315,7.4,11.0,19,0.00,,,0.00,WUHU216HW,2013-07-28 22:48:00,
2013-07-28 15:53:00,102.4,53.8,29.91,WSW,248,3.4,11.0,20,0.00,,,0.00,WUHU216HW,2013-07-28 22:53:00,
2013-07-28 15:58:00,101.7,55.4,29.90,West,270,4.7,9.2,22,0.00,,,0.00,WUHU216HW,2013-07-28 22:58:00,
2013-07-28 16:03:00,102.8,56.3,29.90,SSE,158,4.5,9.4,22,0.00,,,0.00,WUHU216HW,2013-07-28 23:03:00,
2013-07-28 16:08:00,104.4,55.4,29.90,WSW,248,4.7,9.4,20,0.00,,,0.00,WUHU216HW,2013-07-28 23:08:00,
2013-07-28 16:13:00,104.4,53.6,29.89,West,270,10.5,13.0,19,0.00,,,0.00,WUHU216HW,2013-07-28 23:13:00,
2013-07-28 16:18:00,103.3,52.7,29.89,West,270,6.0,15.0,19,0.00,,,0.00,WUHU216HW,2013-07-28 23:18:00,
2013-07-28 16:23:00,103.3,52.7,29.89,WSW,248,9.2,15.0,19,0.00,,,0.00,WUHU216HW,2013-07-28 23:23:00,
2013-07-28 16:28:00,103.0,52.4,29.88,West,270,9.2,15.0,19,0.00,,,0.00,WUHU216HW,2013-07-28 23:28:00,
2013-07-28 16:33:00,102.8,54.1,29.88,West,270,7.6,15.0,20,0.00,,,0.00,WUHU216HW,2013-07-28 23:33:00,
2013-07-28 16:38:00,102.4,51.9,29.88,WSW,248,7.4,13.2,19,0.00,,,0.00,WUHU216HW,2013-07-28 23:38:00,
2013-07-28 16:43:00,101.5,53.1,29.88,SW,225,5.1,13.2,20,0.00,,,0.00,WUHU216HW,2013-07-28 23:43:00,
2013-07-28 16:48:00,100.6,52.4,29.88,WNW,293,4.0,8.1,20,0.00,,,0.00,WUHU216HW,2013-07-28 23:48:00,
2013-07-28 16:53:00,101.2,52.7,29.88,WSW,248,12.3,12.8,20,0.00,,,0.00,WUHU216HW,2013-07-28 23:53:00,
2013-07-28 16:58:00,101.7,53.2,29.89,West,270,9.4,12.8,20,0.00,,,0.00,WUHU216HW,2013-07-28 23:58:00,
2013-07-28 17:03:00,101.3,52.9,29.89,SW,225,8.5,12.5,20,0.00,,,0.00,WUHU216HW,2013-07-29 00:03:00,
2013-07-28 17:08:00,100.3,52.0,29.90,West,270,6.0,14.1,20,0.00,,,0.00,WUHU216HW,2013-07-29 00:08:00,
2013-07-28 17:13:00,99.4,53.6,29.90,West,270,5.6,14.1,22,0.00,,,0.00,WUHU216HW,2013-07-29 00:13:00,
2013-07-28 17:18:00,99.7,53.9,29.89,SW,225,7.2,11.2,22,0.00,,,0.00,WUHU216HW,2013-07-29 00:18:00,
2013-07-28 17:23:00,99.0,53.3,29.89,West,270,6.9,10.5,22,0.00,,,0.00,WUHU216HW,2013-07-29 00:23:00,
2013-07-28 17:28:00,98.6,53.0,29.88,SW,225,6.9,10.5,22,0.00,,,0.00,WUHU216HW,2013-07-29 00:28:00,
2013-07-28 17:33:00,98.3,52.8,29.88,WSW,248,5.6,7.2,22,0.00,,,0.00,WUHU216HW,2013-07-29 00:33:00,
2013-07-28 17:38:00,97.9,52.4,29.88,West,270,5.6,8.9,22,0.00,,,0.00,WUHU216HW,2013-07-29 00:38:00,
2013-07-28 17:43:00,98.1,52.6,29.88,WSW,248,9.2,10.1,22,0.00,,,0.00,WUHU216HW,2013-07-29 00:43:00,
2013-07-28 17:48:00,99.0,53.3,29.88,WSW,248,6.0,10.5,22,0.00,,,0.00,WUHU216HW,2013-07-29 00:48:00,
2013-07-28 17:53:00,100.1,51.9,29.88,WSW,248,4.3,10.5,20,0.00,,,0.00,WUHU216HW,2013-07-29 00:53:00,
2013-07-28 17:58:00,100.4,52.2,29.88,WSW,248,9.6,9.6,20,0.00,,,0.00,WUHU216HW,2013-07-29 00:58:00,
2013-07-28 18:03:00,99.2,51.2,29.88,SW,225,10.5,12.8,20,0.00,,,0.00,WUHU216HW,2013-07-29 01:03:00,
2013-07-28 18:08:00,98.1,50.3,29.88,SW,225,6.3,12.8,20,0.00,,,0.00,WUHU216HW,2013-07-29 01:08:00,
2013-07-28 18:13:00,97.4,51.9,29.89,SW,225,7.8,13.4,22,0.00,,,0.00,WUHU216HW,2013-07-29 01:13:00,
2013-07-28 18:18:00,96.8,51.5,29.89,SSW,203,6.0,13.4,22,0.00,,,0.00,WUHU216HW,2013-07-29 01:18:00,
2013-07-28 18:23:00,97.0,51.7,29.90,SW,225,7.6,8.9,22,0.00,,,0.00,WUHU216HW,2013-07-29 01:23:00,
2013-07-28 18:28:00,98.3,52.8,29.90,WNW,293,4.0,8.7,22,0.00,,,0.00,WUHU216HW,2013-07-29 01:28:00,
2013-07-28 18:33:00,99.4,53.6,29.90,SSW,203,5.6,8.3,22,0.00,,,0.00,WUHU216HW,2013-07-29 01:33:00,
2013-07-28 18:38:00,99.5,51.5,29.90,SSW,203,6.9,9.6,20,0.00,,,0.00,WUHU216HW,2013-07-29 01:38:00,
2013-07-28 18:44:00,99.5,51.5,29.89,SSW,203,9.2,9.6,20,0.00,,,0.00,WUHU216HW,2013-07-29 01:44:00,
2013-07-28 18:49:00,99.2,51.2,29.89,SW,225,6.5,9.4,20,0.00,,,0.00,WUHU216HW,2013-07-29 01:49:00,
2013-07-28 18:54:00,98.5,52.8,29.89,SW,225,5.1,8.3,22,0.00,,,0.00,WUHU216HW,2013-07-29 01:54:00,
2013-07-28 18:59:00,97.6,52.1,29.89,SW,225,6.0,7.4,22,0.00,,,0.00,WUHU216HW,2013-07-29 01:59:00,
2013-07-28 19:04:00,96.8,51.5,29.89,SW,225,6.9,7.2,22,0.00,,,0.00,WUHU216HW,2013-07-29 02:04:00,
2013-07-28 19:10:00,96.8,51.5,29.90,WSW,248,4.5,7.2,22,0.00,,,0.00,WUHU216HW,2013-07-29 02:10:00,
2013-07-28 19:15:00,96.5,52.3,29.90,WSW,248,5.8,7.2,23,0.00,,,0.00,WUHU216HW,2013-07-29 02:15:00,
2013-07-28 19:20:00,95.9,51.9,29.90,West,270,4.3,7.6,23,0.00,,,0.00,WUHU216HW,2013-07-29 02:20:00,
2013-07-28 19:25:00,95.4,51.4,29.90,WSW,248,6.3,7.6,23,0.00,,,0.00,WUHU216HW,2013-07-29 02:25:00,
2013-07-28 19:30:00,95.0,51.0,29.91,SW,225,3.4,7.6,23,0.00,,,0.00,WUHU216HW,2013-07-29 02:30:00,
2013-07-28 19:36:00,94.7,50.8,29.91,WSW,248,3.4,7.6,23,0.00,,,0.00,WUHU216HW,2013-07-29 02:36:00,
2013-07-28 19:41:00,94.3,50.5,29.91,West,270,2.9,6.0,23,0.00,,,0.00,WUHU216HW,2013-07-29 02:41:00,
2013-07-28 19:46:00,94.0,51.3,29.91,WSW,248,3.4,6.5,24,0.00,,,0.00,WUHU216HW,2013-07-29 02:46:00,
2013-07-28 19:51:00,93.8,50.1,29.91,WNW,293,10.1,10.1,23,0.00,,,0.00,WUHU216HW,2013-07-29 02:51:00,
2013-07-28 19:56:00,93.6,49.9,29.91,West,270,5.4,10.7,23,0.00,,,0.00,WUHU216HW,2013-07-29 02:56:00,
2013-07-28 20:01:00,93.4,49.7,29.91,WNW,293,4.7,10.7,23,0.00,,,0.00,WUHU216HW,2013-07-29 03:01:00,
2013-07-28 20:06:00,93.2,49.6,29.91,NNW,338,3.4,6.9,23,0.00,,,0.00,WUHU216HW,2013-07-29 03:06:00,
2013-07-28 20:12:00,92.9,49.2,29.91,West,270,3.1,6.9,23,0.00,,,0.00,WUHU216HW,2013-07-29 03:12:00,
2013-07-28 20:17:00,92.5,50.0,29.91,WNW,293,3.6,4.7,24,0.00,,,0.00,WUHU216HW,2013-07-29 03:17:00,
2013-07-28 20:22:00,92.2,48.7,29.92,NW,315,7.8,8.5,23,0.00,,,0.00,WUHU216HW,2013-07-29 03:22:00,
2013-07-28 20:27:00,91.8,47.4,29.93,West,270,4.7,8.5,22,0.00,,,0.00,WUHU216HW,2013-07-29 03:27:00,
2013-07-28 20:32:00,91.6,47.2,29.93,West,270,3.6,10.5,22,0.00,,,0.00,WUHU216HW,2013-07-29 03:32:00,
2013-07-28 20:38:00,91.4,47.0,29.94,West,270,6.9,10.5,22,0.00,,,0.00,WUHU216HW,2013-07-29 03:38:00,
2013-07-28 20:43:00,91.3,46.9,29.94,WNW,293,3.8,10.5,22,0.00,,,0.00,WUHU216HW,2013-07-29 03:43:00,
2013-07-28 20:48:00,91.1,46.7,29.95,WNW,293,7.8,10.5,22,0.00,,,0.00,WUHU216HW,2013-07-29 03:48:00,
2013-07-28 20:53:00,90.7,46.5,29.95,NW,315,6.3,7.8,22,0.00,,,0.00,WUHU216HW,2013-07-29 03:53:00,
2013-07-28 20:58:00,90.7,46.5,29.95,NW,315,2.0,7.4,22,0.00,,,0.00,WUHU216HW,2013-07-29 03:58:00,
2013-07-28 21:01:00,90.5,46.3,29.95,WNW,293,4.3,7.4,22,0.00,,,0.00,WUHU216HW,2013-07-29 04:01:00,
2013-07-28 21:02:00,90.4,46.2,29.95,West,270,2.9,7.4,22,0.00,,,0.00,WUHU216HW,2013-07-29 04:02:00,
2013-07-28 21:07:00,90.2,46.0,29.95,WNW,293,3.6,5.6,22,0.00,,,0.00,WUHU216HW,2013-07-29 04:07:00,
2013-07-28 21:12:00,90.0,45.8,29.95,NNW,338,3.1,6.0,22,0.00,,,0.00,WUHU216HW,2013-07-29 04:12:00,
2013-07-28 21:17:00,89.6,45.5,29.95,North,0,3.1,6.0,22,0.00,,,0.00,WUHU216HW,2013-07-29 04:17:00,
2013-07-28 21:22:00,89.5,45.4,29.95,NNW,338,2.7,4.9,22,0.00,,,0.00,WUHU216HW,2013-07-29 04:22:00,
2013-07-28 21:27:00,89.1,46.2,29.95,WNW,293,4.0,5.1,23,0.00,,,0.00,WUHU216HW,2013-07-29 04:27:00,
2013-07-28 21:32:00,89.1,45.1,29.95,NNW,338,4.7,5.6,22,0.00,,,0.00,WUHU216HW,2013-07-29 04:32:00,
2013-07-28 21:37:00,88.9,44.9,29.96,WNW,293,3.8,5.6,22,0.00,,,0.00,WUHU216HW,2013-07-29 04:37:00,
2013-07-28 21:42:00,88.9,44.9,29.96,NNW,338,2.5,5.4,22,0.00,,,0.00,WUHU216HW,2013-07-29 04:42:00,
2013-07-28 21:47:00,88.9,44.9,29.96,WNW,293,4.3,9.2,22,0.00,,,0.00,WUHU216HW,2013-07-29 04:47:00,
2013-07-28 21:52:00,88.9,44.9,29.97,WNW,293,7.8,9.2,22,0.00,,,0.00,WUHU216HW,2013-07-29 04:52:00,
2013-07-28 21:57:00,88.7,44.8,29.97,WNW,293,4.3,8.5,22,0.00,,,0.00,WUHU216HW,2013-07-29 04:57:00,
2013-07-28 22:02:00,88.6,44.6,29.97,WNW,293,4.9,7.8,22,0.00,,,0.00,WUHU216HW,2013-07-29 05:02:00,
2013-07-28 22:07:00,88.2,45.5,29.97,WNW,293,4.7,5.1,23,0.00,,,0.00,WUHU216HW,2013-07-29 05:07:00,
2013-07-28 22:12:00,88.2,45.5,29.96,NW,315,6.3,6.5,23,0.00,,,0.00,WUHU216HW,2013-07-29 05:12:00,
2013-07-28 22:17:00,88.2,44.4,29.96,ENE,68,4.9,6.5,22,0.00,,,0.00,WUHU216HW,2013-07-29 05:17:00,
2013-07-28 22:22:00,88.2,44.4,29.96,WNW,293,4.9,6.3,22,0.00,,,0.00,WUHU216HW,2013-07-29 05:22:00,
2013-07-28 22:27:00,88.0,44.2,29.96,NNW,338,3.1,6.3,22,0.00,,,0.00,WUHU216HW,2013-07-29 05:27:00,
2013-07-28 22:32:00,87.7,45.0,29.96,NNW,338,4.0,5.4,23,0.00,,,0.00,WUHU216HW,2013-07-29 05:32:00,
2013-07-28 22:37:00,87.5,44.8,29.97,NNW,338,4.0,5.4,23,0.00,,,0.00,WUHU216HW,2013-07-29 05:37:00,
2013-07-28 22:42:00,87.5,44.8,29.97,NNW,338,2.5,6.9,23,0.00,,,0.00,WUHU216HW,2013-07-29 05:42:00,
2013-07-28 22:47:00,87.3,44.6,29.97,NNW,338,1.8,6.9,23,0.00,,,0.00,WUHU216HW,2013-07-29 05:47:00,
2013-07-28 22:52:00,87.1,44.5,29.98,NW,315,3.1,4.3,23,0.00,,,0.00,WUHU216HW,2013-07-29 05:52:00,
2013-07-28 22:57:00,86.8,44.2,29.98,NNW,338,2.9,4.3,23,0.00,,,0.00,WUHU216HW,2013-07-29 05:57:00,
2013-07-28 23:02:00,86.8,44.2,29.98,NNW,338,3.4,4.3,23,0.00,,,0.00,WUHU216HW,2013-07-29 06:02:00,
2013-07-28 23:07:00,86.6,44.0,29.98,North,0,2.7,4.3,23,0.00,,,0.00,WUHU216HW,2013-07-29 06:07:00,
2013-07-28 23:12:00,86.4,43.8,29.98,NNW,338,3.4,4.3,23,0.00,,,0.00,WUHU216HW,2013-07-29 06:12:00,
2013-07-28 23:17:00,86.4,43.8,29.97,NNW,338,4.0,4.7,23,0.00,,,0.00,WUHU216HW,2013-07-29 06:17:00,
2013-07-28 23:22:00,86.6,44.0,29.97,NNW,338,2.5,5.6,23,0.00,,,0.00,WUHU216HW,2013-07-29 06:22:00,
2013-07-28 23:27:00,86.4,43.8,29.97,NNW,338,2.5,5.6,23,0.00,,,0.00,WUHU216HW,2013-07-29 06:27:00,
2013-07-28 23:32:00,86.2,43.8,29.97,NNW,338,1.8,3.1,23,0.00,,,0.00,WUHU216HW,2013-07-29 06:32:00,
2013-07-28 23:37:00,86.0,44.6,29.96,NNW,338,1.3,3.4,24,0.00,,,0.00,WUHU216HW,2013-07-29 06:37:00,
2013-07-28 23:42:00,85.9,44.5,29.97,NNW,338,0.7,3.4,24,0.00,,,0.00,WUHU216HW,2013-07-29 06:42:00,
2013-07-28 23:47:00,85.3,44.0,29.97,NNW,338,2.2,2.7,24,0.00,,,0.00,WUHU216HW,2013-07-29 06:47:00,
2013-07-28 23:52:00,85.3,44.0,29.97,North,0,0.4,2.7,24,0.00,,,0.00,WUHU216HW,2013-07-29 06:52:00,
2013-07-28 23:57:00,85.1,44.9,29.98,West,270,2.0,2.5,25,0.00,,,0.00,WUHU216HW,2013-07-29 06:57:00,